| time (UTC) | temp F | wind direction | speed MPH | gust MPH | rain 1hr in | rain 24hr in | rain mn in | humidity % | barometer mb |
| 20260505084906 | 52 | 148 | 0.0 | 2.0 | 0.00 | 0.00 | 0.00 | 91 | 1013.1 |
| 20260505084359 | 52 | 142 | 0.0 | 0.0 | 0.00 | 0.00 | 0.00 | 91 | 1013.3 |
| 20260505082902 | 52 | 147 | 0.0 | 2.0 | 0.00 | 0.00 | 0.00 | 91 | 1013.3 |
| 20260505082858 | 52 | 148 | 0.0 | 2.0 | 0.00 | 0.00 | 0.00 | 91 | 1013.3 |
| 20260505081901 | 52 | 149 | 0.0 | 0.0 | 0.00 | 0.00 | 0.00 | 91 | 1013.5 |
| 20260505080740 | 52 | 142 | 0.0 | 2.0 | 0.00 | 0.00 | 0.00 | 91 | 1013.3 |
| 20260505080229 | 52 | 141 | 0.0 | 1.0 | 0.00 | 0.00 | 0.00 | 91 | 1013.2 |
| 20260505075729 | 52 | 141 | 0.0 | 1.0 | 0.00 | 0.00 | 0.00 | 91 | 1013.2 |
| 20260505075206 | 52 | 141 | 0.0 | 1.0 | 0.00 | 0.00 | 0.00 | 91 | 1013.2 |
| 20260505074702 | 52 | 140 | 0.0 | 2.0 | 0.00 | 0.00 | 0.00 | 91 | 1013.2 |
| 20260505074131 | 52 | 140 | 0.0 | 1.0 | 0.00 | 0.00 | 0.00 | 91 | 1013.3 |
| 20260505074127 | 52 | 140 | 0.0 | 2.0 | 0.00 | 0.00 | 0.00 | 91 | 1013.3 |
| 20260505073111 | 52 | 140 | 0.0 | 1.0 | 0.00 | 0.00 | 0.00 | 91 | 1013.3 |
| 20260505072612 | 52 | 141 | 0.0 | 1.0 | 0.00 | 0.00 | 0.00 | 91 | 1013.3 |
| 20260505072108 | 52 | 141 | 0.0 | 1.0 | 0.00 | 0.00 | 0.00 | 91 | 1013.4 |
| 20260505071600 | 52 | 141 | 0.0 | 0.0 | 0.00 | 0.00 | 0.00 | 91 | 1013.4 |
| 20260505070122 | 52 | 141 | 0.0 | 1.0 | 0.02 | 0.05 | 0.00 | 91 | 1013.5 |
| 20260505070117 | 52 | 141 | 0.0 | 0.0 | 0.03 | 0.05 | 0.90 | 91 | 1013.4 |
| 20260505065532 | 52 | 141 | 0.0 | 0.0 | 0.03 | 0.05 | 0.90 | 91 | 1013.3 |
| 20260505065016 | 52 | 141 | 0.0 | 0.0 | 0.03 | 0.04 | 0.89 | 91 | 1013.5 |
| 20260505064005 | 52 | 141 | 0.0 | 0.0 | 0.04 | 0.04 | 0.89 | 91 | 1013.6 |
| 20260505063508 | 51 | 141 | 0.0 | 0.0 | 0.04 | 0.04 | 0.89 | 91 | 1013.6 |
| 20260505062934 | 51 | 141 | 0.0 | 1.0 | 0.04 | 0.04 | 0.89 | 91 | 1013.5 |
| 20260505062421 | 52 | 141 | 0.0 | 1.0 | 0.04 | 0.04 | 0.89 | 91 | 1013.6 |
| 20260505061920 | 52 | 141 | 0.0 | 2.0 | 0.04 | 0.04 | 0.89 | 91 | 1013.7 |
| 20260505061433 | 52 | 143 | 0.0 | 3.0 | 0.03 | 0.03 | 0.88 | 91 | 1013.3 |
| 20260505061420 | 52 | 142 | 0.0 | 3.0 | 0.04 | 0.04 | 0.89 | 91 | 1013.5 |
| 20260505060421 | 52 | 134 | 0.0 | 1.0 | 0.03 | 0.03 | 0.88 | 91 | 1013.5 |
| 20260505055921 | 52 | 132 | 0.0 | 1.0 | 0.02 | 0.02 | 0.87 | 91 | 1013.4 |
| 20260505055423 | 52 | 132 | 0.0 | 1.0 | 0.02 | 0.02 | 0.87 | 91 | 1013.3 |
| 20260505055418 | 52 | 132 | 0.0 | 1.0 | 0.01 | 0.01 | 0.86 | 91 | 1013.1 |
| 20260505054404 | 52 | 132 | 0.0 | 0.0 | 0.00 | 0.00 | 0.83 | 91 | 1013.2 |
| 20260505053406 | 52 | 167 | 0.0 | 0.0 | 0.00 | 0.00 | 0.80 | 91 | 1013.3 |
| 20260505052858 | 52 | 102 | 0.0 | 2.0 | 0.01 | 0.01 | 0.82 | 91 | 1013.5 |
| 20260505050812 | 52 | 171 | 0.0 | 1.0 | 0.04 | 0.24 | 0.79 | 91 | 1013.3 |
| 20260505050308 | 52 | 141 | 0.0 | 2.0 | 0.06 | 0.23 | 0.78 | 91 | 1013.4 |
| 20260505041643 | 52 | 150 | 0.0 | 2.0 | 0.22 | 0.22 | 0.77 | 91 | 1013.6 |
| 20260505041144 | 52 | 155 | 0.0 | 2.0 | 0.20 | 0.20 | 0.76 | 91 | 1013.5 |
| 20260505041138 | 52 | 140 | 0.0 | 1.0 | 0.18 | 0.18 | 0.74 | 91 | 1013.6 |
| 20260505040134 | 52 | 140 | 0.0 | 2.0 | 0.16 | 0.16 | 0.71 | 91 | 1013.6 |
| 20260505035638 | 52 | 140 | 1.0 | 3.0 | 0.09 | 0.09 | 0.65 | 91 | 1013.7 |
| 20260505035633 | 52 | 141 | 0.0 | 3.0 | 0.12 | 0.12 | 0.67 | 91 | 1013.6 |
| 20260505034631 | 52 | 102 | 0.0 | 3.0 | 0.07 | 0.07 | 0.63 | 91 | 1013.8 |
| 20260505034132 | 52 | 145 | 0.0 | 3.0 | 0.06 | 0.06 | 0.61 | 91 | 1013.7 |
| 20260505033629 | 52 | 167 | 0.0 | 3.0 | 0.04 | 0.04 | 0.59 | 91 | 1013.8 |
| 20260505033129 | 52 | 96 | 0.0 | 1.0 | 0.02 | 0.02 | 0.57 | 91 | 1013.6 |
| 20260505032623 | 52 | 98 | 0.0 | 1.0 | 0.01 | 0.01 | 0.57 | 91 | 1013.4 |
| 20260505032106 | 52 | 86 | 0.0 | 0.0 | 0.00 | 0.00 | 0.50 | 91 | 1013.3 |
| 20260505030808 | 52 | 83 | 1.0 | 0.0 | 0.00 | 0.00 | 0.47 | 91 | 1013.6 |
| 20260505025821 | 52 | 92 | 1.0 | 4.0 | 0.07 | 0.17 | 0.46 | 91 | 1013.9 |
| 20260505024820 | 52 | 109 | 1.0 | 3.0 | 0.08 | 0.16 | 0.45 | 91 | 1013.7 |
| 20260505024318 | 52 | 151 | 0.0 | 3.0 | 0.08 | 0.15 | 0.44 | 91 | 1013.5 |
| 20260505023819 | 52 | 130 | 1.0 | 2.0 | 0.10 | 0.14 | 0.43 | 91 | 1013.2 |
| 20260505023814 | 52 | 154 | 1.0 | 3.0 | 0.08 | 0.14 | 0.43 | 91 | 1013.4 |
| 20260505022815 | 52 | 126 | 0.0 | 2.0 | 0.10 | 0.13 | 0.43 | 91 | 1013.1 |
| 20260505022310 | 52 | 121 | 0.0 | 2.0 | 0.10 | 0.13 | 0.42 | 91 | 1012.7 |
| 20260505021814 | 52 | 160 | 0.0 | 1.0 | 0.10 | 0.12 | 0.41 | 91 | 1012.6 |
| 20260505021752 | 53 | 168 | 1.0 | 2.0 | 0.10 | 0.12 | 0.41 | 91 | 1012.3 |
| 20260505020743 | 52 | 169 | 1.0 | 2.0 | 0.10 | 0.12 | 0.41 | 91 | 1012.3 |
| 20260505020240 | 52 | 145 | 0.0 | 3.0 | 0.09 | 0.11 | 0.40 | 91 | 1012.3 |
| 20260505015736 | 53 | 161 | 0.0 | 3.0 | 0.08 | 0.10 | 0.39 | 91 | 1012.7 |
| 20260505015236 | 53 | 217 | 0.0 | 3.0 | 0.09 | 0.10 | 0.39 | 91 | 1013.0 |
| 20260505014733 | 53 | 134 | 0.0 | 1.0 | 0.06 | 0.07 | 0.36 | 91 | 1013.0 |
| 20260505014729 | 53 | 139 | 0.0 | 2.0 | 0.07 | 0.08 | 0.37 | 91 | 1013.0 |
| 20260505013731 | 53 | 130 | 0.0 | 1.0 | 0.05 | 0.05 | 0.35 | 91 | 1013.0 |
| 20260505013212 | 53 | 150 | 0.0 | 1.0 | 0.04 | 0.04 | 0.33 | 91 | 1013.0 |
| 20260505012712 | 53 | 151 | 0.0 | 2.0 | 0.03 | 0.03 | 0.32 | 91 | 1012.9 |
| 20260505012708 | 53 | 150 | 0.0 | 1.0 | 0.03 | 0.03 | 0.32 | 91 | 1013.0 |
| 20260505012200 | 53 | 146 | 0.0 | 2.0 | 0.02 | 0.02 | 0.31 | 91 | 1012.8 |
| 20260505011124 | 54 | 146 | 0.0 | 2.0 | 0.02 | 0.02 | 0.31 | 91 | 1012.9 |
| 20260505010621 | 54 | 141 | 0.0 | 2.0 | 0.02 | 0.02 | 0.31 | 91 | 1012.8 |
| 20260505010125 | 53 | 144 | 0.0 | 1.0 | 0.02 | 0.02 | 0.31 | 91 | 1012.9 |
| 20260505010106 | 53 | 144 | 0.0 | 1.0 | 0.01 | 0.01 | 0.30 | 91 | 1012.9 |
| 20260505005105 | 53 | 144 | 0.0 | 2.0 | 0.01 | 0.01 | 0.30 | 91 | 1013.0 |
| 20260505004549 | 53 | 142 | 0.0 | 2.0 | 0.01 | 0.01 | 0.30 | 91 | 1013.1 |
| 20260505004059 | 53 | 186 | 0.0 | 1.0 | 0.00 | 0.00 | 0.28 | 90 | 1013.5 |
| 20260505004049 | 53 | 138 | 0.0 | 1.0 | 0.00 | 0.00 | 0.30 | 90 | 1013.4 |
| 20260505002028 | 54 | 200 | 0.0 | 2.0 | 0.05 | 0.05 | 0.27 | 90 | 1013.6 |
| 20260505001523 | 54 | 154 | 0.0 | 2.0 | 0.05 | 0.05 | 0.27 | 90 | 1013.5 |
| 20260505001025 | 54 | 151 | 0.0 | 2.0 | 0.04 | 0.04 | 0.26 | 90 | 1013.5 |
| 20260505000507 | 54 | 148 | 0.0 | 2.0 | 0.04 | 0.04 | 0.26 | 90 | 1013.4 |
| 20260505000005 | 54 | 151 | 0.0 | 2.0 | 0.04 | 0.04 | 0.26 | 90 | 1013.4 |
| 20260505000000 | 53 | 144 | 0.0 | 2.0 | 0.04 | 0.04 | 0.26 | 90 | 1013.3 |
| 20260504235730 | 54 | 63 | 0.0 | 1.0 | 0.00 | 0.00 | 0.22 | 90 | 1013.4 |
| 20260504234950 | 53 | 145 | 0.0 | 1.0 | 0.02 | 0.02 | 0.24 | 90 | 1013.3 |
| 20260504233138 | 54 | 163 | 0.0 | 1.0 | 0.07 | 0.07 | 0.21 | 90 | 1013.3 |
| 20260504232623 | 54 | 171 | 0.0 | 2.0 | 0.07 | 0.07 | 0.21 | 90 | 1013.2 |
| 20260504232123 | 54 | 171 | 0.0 | 4.0 | 0.06 | 0.06 | 0.20 | 90 | 1013.2 |
| 20260504231627 | 55 | 172 | 0.0 | 4.0 | 0.06 | 0.06 | 0.20 | 89 | 1013.6 |
| 20260504231122 | 55 | 131 | 0.0 | 2.0 | 0.04 | 0.04 | 0.19 | 90 | 1013.7 |
| 20260504230621 | 55 | 128 | 0.0 | 2.0 | 0.04 | 0.04 | 0.18 | 90 | 1013.7 |
| 20260504230130 | 55 | 157 | 0.0 | 0.0 | 0.01 | 0.01 | 0.15 | 89 | 1013.4 |
| 20260504230124 | 55 | 165 | 0.0 | 2.0 | 0.03 | 0.03 | 0.17 | 90 | 1013.6 |
| 20260504225622 | 55 | 157 | 0.0 | 2.0 | 0.02 | 0.02 | 0.16 | 89 | 1013.4 |
| 20260504224613 | 55 | 153 | 0.0 | 0.0 | 0.00 | 0.00 | 0.14 | 89 | 1013.5 |
| 20260504224105 | 56 | 170 | 0.0 | 0.0 | 0.00 | 0.00 | 0.13 | 89 | 1013.6 |
| 20260504222605 | 56 | 162 | 0.0 | 0.0 | 0.01 | 0.01 | 0.13 | 89 | 1013.6 |
| 20260504222100 | 56 | 161 | 0.0 | 0.0 | 0.00 | 0.00 | 0.12 | 89 | 1013.8 |
| 20260504221556 | 56 | 162 | 0.0 | 0.0 | 0.00 | 0.00 | 0.12 | 89 | 1013.8 |
| 20260504221046 | 56 | 168 | 0.0 | 0.0 | 0.00 | 0.00 | 0.12 | 89 | 1013.9 |
| 20260504220537 | 56 | 169 | 0.0 | 0.0 | 0.00 | 0.00 | 0.11 | 89 | 1014.0 |
| 20260504215020 | 56 | 182 | 0.0 | 0.0 | 0.02 | 0.05 | 0.10 | 89 | 1013.9 |
| 20260504214514 | 56 | 182 | 0.0 | 0.0 | 0.02 | 0.05 | 0.10 | 89 | 1013.9 |
| 20260504214013 | 56 | 182 | 0.0 | 0.0 | 0.02 | 0.05 | 0.10 | 89 | 1013.9 |
| 20260504213436 | 56 | 182 | 0.0 | 0.0 | 0.02 | 0.05 | 0.10 | 89 | 1013.9 |
| 20260504212923 | 56 | 184 | 0.0 | 0.0 | 0.01 | 0.04 | 0.09 | 89 | 1014.1 |
| 20260504212420 | 56 | 185 | 0.0 | 0.0 | 0.01 | 0.04 | 0.09 | 89 | 1014.2 |
| 20260504211918 | 56 | 185 | 0.0 | 0.0 | 0.02 | 0.04 | 0.09 | 88 | 1014.1 |
| 20260504211335 | 56 | 185 | 0.0 | 0.0 | 0.03 | 0.04 | 0.09 | 88 | 1014.1 |
| 20260504210827 | 56 | 186 | 0.0 | 0.0 | 0.02 | 0.03 | 0.08 | 88 | 1014.2 |
| 20260504210325 | 56 | 186 | 0.0 | 0.0 | 0.02 | 0.03 | 0.08 | 88 | 1014.1 |
| 20260504205823 | 56 | 188 | 0.0 | 0.0 | 0.03 | 0.03 | 0.08 | 88 | 1014.0 |
| 20260504205308 | 56 | 190 | 0.0 | 0.0 | 0.03 | 0.03 | 0.08 | 87 | 1013.8 |
| 20260504205301 | 56 | 196 | 0.0 | 0.0 | 0.03 | 0.03 | 0.08 | 88 | 1013.9 |
| 20260504204256 | 56 | 205 | 0.0 | 0.0 | 0.03 | 0.03 | 0.08 | 88 | 1013.7 |
| 20260504203754 | 56 | 200 | 0.0 | 0.0 | 0.03 | 0.03 | 0.08 | 87 | 1013.7 |
| 20260504203255 | 56 | 200 | 0.0 | 3.0 | 0.03 | 0.03 | 0.08 | 87 | 1013.9 |
| 20260504203249 | 56 | 200 | 1.0 | 3.0 | 0.03 | 0.03 | 0.08 | 87 | 1013.8 |
| 20260504202232 | 56 | 202 | 1.0 | 5.0 | 0.03 | 0.03 | 0.08 | 87 | 1013.8 |
| 20260504201728 | 56 | 204 | 1.0 | 5.0 | 0.02 | 0.02 | 0.07 | 87 | 1013.9 |
| 20260504201228 | 57 | 225 | 1.0 | 4.0 | 0.01 | 0.01 | 0.06 | 87 | 1013.7 |
| 20260504200731 | 57 | 180 | 0.0 | 3.0 | 0.01 | 0.01 | 0.06 | 87 | 1013.7 |
| 20260504200214 | 57 | 200 | 0.0 | 2.0 | 0.01 | 0.01 | 0.06 | 87 | 1013.7 |
| 20260504195712 | 57 | 200 | 0.0 | 2.0 | 0.00 | 0.00 | 0.05 | 87 | 1013.7 |
| 20260504195206 | 57 | 185 | 0.0 | 2.0 | 0.00 | 0.00 | 0.05 | 87 | 1013.9 |
| 20260504194710 | 57 | 184 | 1.0 | 2.0 | 0.00 | 0.00 | 0.05 | 87 | 1013.8 |
| 20260504194208 | 57 | 215 | 0.0 | 2.0 | 0.00 | 0.00 | 0.05 | 87 | 1014.0 |
| 20260504193653 | 57 | 215 | 1.0 | 0.0 | 0.00 | 0.00 | 0.05 | 87 | 1014.0 |
| 20260504193327 | 57 | 213 | 1.0 | 4.0 | 0.00 | 0.00 | 0.05 | 88 | 1014.3 |
| 20260504191826 | 56 | 233 | 1.0 | 4.0 | 0.00 | 0.00 | 0.05 | 88 | 1014.2 |
| 20260504191322 | 56 | 234 | 1.0 | 2.0 | 0.00 | 0.00 | 0.05 | 88 | 1014.2 |
| 20260504190206 | 56 | 204 | 1.0 | 5.0 | 0.01 | 0.01 | 0.05 | 88 | 1014.0 |
| 20260504185702 | 56 | 209 | 2.0 | 6.0 | 0.00 | 0.00 | 0.04 | 88 | 1014.1 |
| 20260504185657 | 56 | 138 | 2.0 | 6.0 | 0.00 | 0.00 | 0.04 | 88 | 1014.0 |
| 20260504184646 | 56 | 185 | 2.0 | 5.0 | 0.00 | 0.00 | 0.04 | 87 | 1014.1 |
| 20260504184146 | 55 | 217 | 2.0 | 2.0 | 0.00 | 0.00 | 0.04 | 87 | 1014.0 |
| 20260504182822 | 55 | 185 | 2.0 | 4.0 | 0.00 | 0.00 | 0.04 | 87 | 1014.1 |
| 20260504182318 | 55 | 211 | 2.0 | 1.0 | 0.00 | 0.00 | 0.03 | 87 | 1014.0 |
| 20260504180916 | 56 | 187 | 1.0 | 6.0 | 0.02 | 0.02 | 0.02 | 86 | 1014.2 |
| 20260504180415 | 56 | 185 | 1.0 | 6.0 | 0.02 | 0.02 | 0.02 | 86 | 1014.1 |
| 20260504175911 | 56 | 202 | 0.0 | 3.0 | 0.02 | 0.02 | 0.02 | 86 | 1014.0 |
| 20260504175414 | 56 | 205 | 0.0 | 3.0 | 0.01 | 0.01 | 0.01 | 85 | 1014.0 |
| 20260504174847 | 56 | 203 | 1.0 | 4.0 | 0.00 | 0.00 | 0.00 | 84 | 1013.9 |
| 20260504174334 | 56 | 219 | 1.0 | 5.0 | 0.00 | 0.00 | 0.00 | 84 | 1013.7 |
| 20260504173834 | 56 | 202 | 1.0 | 5.0 | 0.00 | 0.00 | 0.00 | 83 | 1013.6 |
| 20260504173334 | 56 | 191 | 2.0 | 5.0 | 0.00 | 0.00 | 0.00 | 83 | 1013.6 |
| 20260504172835 | 56 | 215 | 2.0 | 5.0 | 0.00 | 0.00 | 0.00 | 83 | 1013.6 |
| 20260504172326 | 56 | 202 | 2.0 | 1.0 | 0.00 | 0.00 | 0.00 | 82 | 1013.6 |
| 20260504171425 | 56 | 205 | 3.0 | 6.0 | 0.00 | 0.00 | 0.00 | 78 | 1013.4 |
| 20260504170915 | 56 | 226 | 3.0 | 6.0 | 0.00 | 0.00 | 0.00 | 79 | 1013.6 |
| 20260504160122 | 56 | 165 | 3.0 | 7.0 | 0.00 | 0.00 | 0.00 | 78 | 1013.3 |
| 20260504150856 | 56 | 155 | 2.0 | 7.0 | 0.00 | 0.00 | 0.00 | 80 | 1012.8 |
| 20260504150355 | 55 | 169 | 2.0 | 4.0 | 0.00 | 0.00 | 0.00 | 80 | 1012.9 |
| 20260504140406 | 53 | 182 | 2.0 | 5.0 | 0.00 | 0.00 | 0.00 | 85 | 1012.7 |
| 20260504140401 | 53 | 205 | 1.0 | 5.0 | 0.00 | 0.00 | 0.00 | 85 | 1012.7 |
| 20260504130738 | 53 | 204 | 2.0 | 10.0 | 0.00 | 0.00 | 0.00 | 84 | 1012.2 |
| 20260504130233 | 53 | 220 | 2.0 | 6.0 | 0.00 | 0.00 | 0.00 | 84 | 1012.2 |
| 20260504110520 | 53 | 180 | 0.0 | 3.0 | 0.00 | 0.00 | 0.00 | 82 | 1012.3 |